LUCH 5A (SDCM/PRN 140)

Last updated on Wed Mar 04 2026 00:03:30 GMT+0000 (Coordinated Universal Time)

1 37951U 11074B 26062.33431453 -.00000059 00000+0 00000+0 0 9993 2 37951 8.4846 75.3620 0004035 243.1766 129.9912 1.00275251 51991
UTC large
Height (km)
Speed (km/s)
/
Latitude / Longitude
Inclination (degrees)
Orbital Period (minutes)
Azimuth
Elevation
Range (km)
Doppler Factor

Next 0 passes for location: London (51.5072 / 0.1276)

Sorry there are no passes over London.